Location: Ermatingen
(47.6706°N, 9.0857°E)
Time: 05:32:19
(UTC+00:00)

MetOp-B - Pass Details

Date: 18 September 2020
Orbit: 819 x 821 km, 98.7° (Epoch: 29 October)

Event Time Altitude Azimuth Distance (km) Brightness Sun altitude
Exits shadow 19:41:01 46° 94° (E) 1,089 4.3 -22.1°
Maximum altitude 19:41:45 50° 68° (ENE) 1,045 4.4 -22.2°
Drops below altitude 10° 19:46:54 10° 355° (N) 2,428 7.0 -22.9°
Sets 19:49:19 0° 350° (N) 3,364 7.9 -23.3°
